Burlington, WI

8:14 PM CDT on July 27, 2017 (GMT -0500)
Burlington

Weather History for KBUU - January, 2013

Change the Weather History Date:

Friday, January 4, 2013

  Actual Average (KENW) Record (KENW)
Temperature  
Mean Temperature 20 °F -  
Max Temperature 30 °F 29 °F 60 °F (1997)
Min Temperature 10 °F 11 °F -11 °F (1988)
Degree Days  
Heating Degree Days 45    
Moisture  
Dew Point 16 °F    
Average Humidity 80    
Maximum Humidity 93    
Minimum Humidity 64    
Precipitation  
Precipitation 0.00 in - - ()
Sea Level Pressure  
Sea Level Pressure 30.14 in    
Wind  
Wind Speed 12 mph (WSW)    
Max Wind Speed 20 mph    
Max Gust Speed 31 mph    
Visibility 10 miles    
Events      
Averages and records for this station are not official NWS values.
T = Trace of Precipitation, MM = Missing Value Source: NWS Daily Summary

Daily Weather History Graph

Daily Weather History Graph

Search for Another Location

Airport or City:

Trip Planner

Search our weather history database for the weather conditions in past years. The results will help you decide how hot, cold, wet, or windy it might be!

Date:

Astronomy

Jan. 04, 2013 Rise Set
Actual Time 7:23 AM CST 4:33 PM CST
Civil Twilight 6:51 AM CST 5:05 PM CST
Nautical Twilight 6:16 AM CST 5:40 PM CST
Astronomical Twilight 5:42 AM CST 6:14 PM CST
Moon No Moon Rise 10:55 AM CST (1/4)
Length of Visible Light 10h 13m
Length of Day
9h 09m
Waning Gibbous, 55% of the Moon is Illuminated
Jan 4
Waning Gibbous
Jan 4
Last Quarter
Jan 11
New
Jan 18
First Quarter
Jan 26
Full

Hourly Weather History & Observations

Time (CST) Temp. Windchill Dew Point Humidity Pressure Visibility Wind Dir Wind Speed Gust Speed Precip Events Conditions
12:15 AM 12.2 °F -1.0 °F 8.6 °F 85% 30.18 in 10.0 mi WSW 10.4 mph 18.4 mph N/A   Clear
12:35 AM 12.2 °F -1.0 °F 8.6 °F 85% 30.17 in 10.0 mi WSW 10.4 mph 16.1 mph N/A   Clear
12:55 AM 12.2 °F -1.8 °F 6.8 °F 79% 30.17 in 10.0 mi West 11.5 mph - N/A   Clear
1:15 AM 10.4 °F -4.8 °F 6.8 °F 85% 30.17 in 10.0 mi WSW 12.7 mph 17.3 mph N/A   Clear
1:35 AM 10.4 °F -4.1 °F 6.8 °F 85% 30.17 in 10.0 mi WSW 11.5 mph 17.3 mph N/A   Clear
1:55 AM 10.4 °F -4.1 °F 6.8 °F 85% 30.17 in 10.0 mi WSW 11.5 mph - N/A   Clear
2:15 AM 10.4 °F -4.1 °F 6.8 °F 85% 30.17 in 10.0 mi WSW 11.5 mph - N/A   Clear
2:55 AM 10.4 °F -3.3 °F 6.8 °F 85% 30.16 in 10.0 mi WSW 10.4 mph 17.3 mph N/A   Clear
3:15 AM 10.4 °F -5.4 °F 6.8 °F 85% 30.15 in 10.0 mi WSW 13.8 mph - N/A   Clear
5:35 AM 12.2 °F -3.1 °F 8.6 °F 85% 30.12 in 10.0 mi SW 13.8 mph - N/A   Clear
5:55 AM 12.2 °F -1.8 °F 10.4 °F 92% 30.12 in 10.0 mi SW 11.5 mph 15.0 mph N/A   Clear
6:15 AM 12.2 °F -2.5 °F 10.4 °F 92% 30.12 in 10.0 mi WSW 12.7 mph 18.4 mph N/A   Clear
6:35 AM 14.0 °F -2.0 °F 10.4 °F 86% 30.11 in 10.0 mi WSW 16.1 mph 25.3 mph N/A   Clear
6:55 AM 14.0 °F -2.0 °F 10.4 °F 86% 30.11 in 10.0 mi WSW 16.1 mph 24.2 mph N/A   Clear
7:15 AM 14.0 °F -3.4 °F 10.4 °F 86% 30.11 in 10.0 mi WSW 19.6 mph 24.2 mph N/A   Clear
7:35 AM 14.0 °F -1.4 °F 10.4 °F 86% 30.12 in 10.0 mi WSW 15.0 mph 23.0 mph N/A   Clear
7:55 AM 14.0 °F -0.2 °F 12.2 °F 93% 30.13 in 10.0 mi WSW 12.7 mph 21.9 mph N/A   Clear
8:15 AM 15.8 °F 2.1 °F 12.2 °F 86% 30.13 in 10.0 mi WSW 12.7 mph 17.3 mph N/A   Clear
8:55 AM 17.6 °F 2.7 °F 12.2 °F 79% 30.12 in 10.0 mi WSW 16.1 mph - N/A   Clear
9:15 AM 19.4 °F 5.0 °F 14.0 °F 80% 30.12 in 10.0 mi WSW 16.1 mph 28.8 mph N/A   Clear
9:35 AM 19.4 °F 5.0 °F 14.0 °F 80% 30.12 in 10.0 mi WSW 16.1 mph 25.3 mph N/A   Clear
9:55 AM 21.2 °F 7.3 °F 14.0 °F 74% 30.12 in 10.0 mi WSW 16.1 mph 21.9 mph N/A   Clear
10:15 AM 21.2 °F 8.3 °F 15.8 °F 80% 30.12 in 10.0 mi West 13.8 mph 21.9 mph N/A   Clear
10:55 AM 23.0 °F 9.6 °F 17.6 °F 80% 30.11 in 10.0 mi WSW 16.1 mph 25.3 mph N/A   Clear
11:15 AM 24.8 °F 11.5 °F 17.6 °F 74% 30.10 in 10.0 mi WSW 17.3 mph 21.9 mph N/A   Clear
11:35 AM 24.8 °F 11.5 °F 17.6 °F 74% 30.10 in 10.0 mi West 17.3 mph 24.2 mph N/A   Clear
11:55 AM 26.6 °F 15.2 °F 17.6 °F 69% 30.09 in 10.0 mi WSW 13.8 mph 21.9 mph N/A   Clear
12:15 PM 28.4 °F 18.0 °F 19.4 °F 69% 30.08 in 10.0 mi WSW 12.7 mph 19.6 mph N/A   Clear
12:35 PM 28.4 °F 18.5 °F 19.4 °F 69% 30.07 in 10.0 mi WSW 11.5 mph 16.1 mph N/A   Clear
12:55 PM 28.4 °F 19.1 °F 19.4 °F 69% 30.07 in 10.0 mi West 10.4 mph 16.1 mph N/A   Clear
1:15 PM 30.2 °F 18.9 °F 19.4 °F 64% 30.07 in 10.0 mi West 16.1 mph 31.1 mph N/A   Clear
1:35 PM 30.2 °F 19.3 °F 19.4 °F 64% 30.07 in 10.0 mi West 15.0 mph 25.3 mph N/A   Clear
1:55 PM 30.2 °F 19.8 °F 19.4 °F 64% 30.07 in 10.0 mi WSW 13.8 mph 21.9 mph N/A   Clear
2:15 PM 30.2 °F 19.3 °F 19.4 °F 64% 30.08 in 10.0 mi West 15.0 mph 23.0 mph N/A   Clear
2:35 PM 30.2 °F 19.8 °F 19.4 °F 64% 30.09 in 10.0 mi West 13.8 mph 20.7 mph N/A   Clear
2:55 PM 30.2 °F 19.3 °F 19.4 °F 64% 30.10 in 10.0 mi West 15.0 mph 20.7 mph N/A   Clear
3:15 PM 30.2 °F 19.8 °F 19.4 °F 64% 30.10 in 10.0 mi West 13.8 mph 20.7 mph N/A   Clear
3:35 PM 28.4 °F 18.0 °F 19.4 °F 69% 30.11 in 10.0 mi West 12.7 mph 19.6 mph N/A   Clear
3:55 PM 28.4 °F 18.5 °F 19.4 °F 69% 30.12 in 10.0 mi West 11.5 mph 19.6 mph N/A   Clear
4:15 PM 28.4 °F 20.4 °F 19.4 °F 69% 30.13 in 10.0 mi WSW 8.1 mph - N/A   Clear
4:35 PM 26.6 °F 16.8 °F 19.4 °F 74% 30.13 in 10.0 mi WSW 10.4 mph - N/A   Clear
4:55 PM 26.6 °F 18.2 °F 19.4 °F 74% 30.14 in 10.0 mi WSW 8.1 mph - N/A   Clear
5:15 PM 26.6 °F 21.2 °F 19.4 °F 74% 30.14 in 10.0 mi WSW 4.6 mph - N/A   Clear
5:35 PM 23.0 °F 14.7 °F 19.4 °F 86% 30.15 in 10.0 mi WSW 6.9 mph - N/A   Clear
5:55 PM 23.0 °F 15.8 °F 19.4 °F 86% 30.15 in 10.0 mi WSW 5.8 mph - N/A   Clear
6:15 PM 23.0 °F 15.8 °F 19.4 °F 86% 30.16 in 10.0 mi WSW 5.8 mph - N/A   Clear
6:35 PM 23.0 °F 15.8 °F 19.4 °F 86% 30.16 in 10.0 mi WSW 5.8 mph - N/A   Clear
6:55 PM 23.0 °F 15.8 °F 19.4 °F 86% 30.17 in 10.0 mi WSW 5.8 mph - N/A   Clear
7:15 PM 23.0 °F 17.0 °F 19.4 °F 86% 30.17 in 10.0 mi WSW 4.6 mph - N/A   Clear
7:35 PM 23.0 °F 15.8 °F 19.4 °F 86% 30.17 in 10.0 mi WSW 5.8 mph - N/A   Clear
7:55 PM 23.0 °F 15.8 °F 19.4 °F 86% 30.17 in 10.0 mi WSW 5.8 mph - N/A   Clear
8:15 PM 21.2 °F 14.9 °F 19.4 °F 93% 30.17 in 10.0 mi WSW 4.6 mph - N/A   Clear
8:35 PM 21.2 °F 14.9 °F 17.6 °F 86% 30.17 in 10.0 mi SW 4.6 mph - N/A   Clear
8:55 PM 21.2 °F 13.6 °F 19.4 °F 93% 30.17 in 10.0 mi WSW 5.8 mph - N/A   Clear
9:15 PM 23.0 °F 15.8 °F 19.4 °F 86% 30.17 in 10.0 mi WSW 5.8 mph - N/A   Clear
9:55 PM 23.0 °F 15.8 °F 19.4 °F 86% 30.17 in 10.0 mi WSW 5.8 mph - N/A   Clear
10:15 PM 23.0 °F 14.7 °F 19.4 °F 86% 30.18 in 10.0 mi WSW 6.9 mph - N/A   Clear
10:35 PM 23.0 °F 14.7 °F 19.4 °F 86% 30.18 in 10.0 mi WSW 6.9 mph - N/A   Clear
10:55 PM 23.0 °F 15.8 °F 19.4 °F 86% 30.18 in 10.0 mi WSW 5.8 mph - N/A   Clear
11:15 PM 23.0 °F 17.0 °F 17.6 °F 80% 30.18 in 10.0 mi SW 4.6 mph - N/A   Clear
11:35 PM 23.0 °F 15.8 °F 19.4 °F 86% 30.18 in 10.0 mi West 5.8 mph - N/A   Clear
11:55 PM 21.2 °F 14.9 °F 17.6 °F 86% 30.19 in 10.0 mi SW 4.6 mph - N/A   Clear